Waarnemingen

Advertentie
Mijn weer
Charleville, Frankrijk (7075): temperatuur & dauwpunt: 14.05.2019 05:00:00 - 20.05.2019 05:00:00 (CEST)Charleville, Frankrijk (7075): temperatuur 5cm: 14.05.2019 05:00:00 - 20.05.2019 05:00:00 (CEST)Charleville, Frankrijk (7075): temperatuur -20cm & temperatuur -100cm: 14.05.2019 05:00:00 - 20.05.2019 05:00:00 (CEST)Charleville, Frankrijk (7075): windsnelheid & windstoten: 14.05.2019 05:00:00 - 20.05.2019 05:00:00 (CEST)Charleville, Frankrijk (7075): windrichting: 14.05.2019 05:00:00 - 20.05.2019 05:00:00 (CEST)Charleville, Frankrijk (7075): luchtdruk: 14.05.2019 05:00:00 - 20.05.2019 05:00:00 (CEST)Charleville, Frankrijk (7075): zicht: 14.05.2019 05:00:00 - 20.05.2019 05:00:00 (CEST)Charleville, Frankrijk (7075): Zonneschijnduur: 14.05.2019 05:00:00 - 20.05.2019 05:00:00 (CEST)Charleville, Frankrijk (7075): neerslag: 14.05.2019 05:00:00 - 20.05.2019 05:00:00 (CEST)
Datum & Tijd tt [°C] td [°C] tt 5cm [°C] tt -20cm [°C] tt -100cm [°C] ff [km/u] ff [kn] fx [km/u] fx [kn] dd ppp [hPa] vv [km] sd [min] rr [mm]
20.05.2019 05:00:00 11,8 10,5 11,5 14,5 11,5 12 7 17 9 NNW 1007,3 4,9 0 0,0
20.05.2019 04:00:00 12,0 10,7 12,1 14,5 11,5 11 6 18 10 NW 1007,3 3,5 0 0,0
20.05.2019 03:00:00 12,3 11,0 12,5 14,6 11,5 10 5 21 11 NW 1007,2 3,3 0 0,0
20.05.2019 02:00:00 12,9 11,0 12,8 14,6 11,5 13 7 23 12 NW 1007,0 4,7 0 0,0
20.05.2019 01:00:00 13,2 11,4 12,8 14,6 11,4 11 6 18 10 WNW 1007,1 4,7 0 0,0
20.05.2019 00:00:00 13,3 11,5 13,0 14,6 11,4 8 5 16 9 WNW 1007,1 5 0 0,0
19.05.2019 23:00:00 13,6 11,5 13,2 14,6 11,4 10 6 19 11 WNW 1007,1 5 0 0,0
19.05.2019 22:00:00 14,3 12,2 13,9 14,6 11,5 10 5 16 9 NW 1006,5 6 0 0,0
19.05.2019 21:00:00 14,7 12,4 14,4 14,6 11,4 9 5 21 11 WNW 1006,0 6 0 0,0
19.05.2019 20:00:00 15,0 12,7 15,2 14,6 11,4 13 7 21 12 NW 1005,9 5 0 0,0
19.05.2019 19:00:00 15,4 12,7 16,0 14,5 11,4 14 7 25 13 NW 1005,8 4,2 0 0,0
19.05.2019 18:00:00 15,7 13,0 17,4 14,5 11,4 14 8 23 12 NNW 1005,7 3,8 0 0,0
19.05.2019 17:00:00 15,9 13,2 17,7 14,4 11,4 12 6 29 15 NNW 1005,7 6 0 0,0
19.05.2019 16:00:00 16,2 13,3 15,9 14,4 11,4 17 9 28 15 NNW 1005,8 5 0 0,0
19.05.2019 15:00:00 15,2 13,0 15,8 14,3 11,4 18 10 29 16 NNW 1005,9 6 0 0,2
19.05.2019 14:00:00 15,5 13,3 17,4 14,3 11,4 17 9 27 15 NW 1006,1 8 0 0,0
19.05.2019 13:00:00 15,5 13,2 15,0 14,3 11,4 16 9 24 13 NNW 1006,2 14 0 0,2
19.05.2019 12:00:00 14,4 12,9 14,7 14,3 11,4 9 5 13 7 NW 1006,4 6 0 0,8
19.05.2019 11:00:00 13,8 12,4 13,9 14,3 11,4 5 3 8 4 W 1006,4 6 0 0,8
19.05.2019 10:00:00 13,4 11,8 13,7 14,4 11,4 3 2 6 4 W 1006,4 10 0 0,6
19.05.2019 09:00:00 13,2 11,9 12,5 14,4 11,4 3 1 5 3 WZW 1006,3 15 0 0,0
19.05.2019 08:00:00 12,2 11,3 11,7 14,4 11,4 0 0 6 4 N 1006,2 11 0 0,2
19.05.2019 07:00:00 11,7 10,4 10,9 14,5 11,4 3 1 6 4 W 1006,2 18 0 0,0
19.05.2019 06:00:00 11,5 10,4 10,7 14,6 11,4 4 2 10 6 WNW 1006,1 20 0 0,0
19.05.2019 05:00:00 11,6 10,5 11,1 14,6 11,4 7 4 9 5 WNW 1006,1 20 0 0,0
19.05.2019 04:00:00 12,1 11,2 11,0 14,7 11,4 6 3 8 4 WNW 1006,1 20 0 0,0
19.05.2019 03:00:00 12,0 10,7 11,2 14,7 11,4 0 0 5 3 N 1006,4 20 0 0,0
19.05.2019 02:00:00 12,7 10,8 11,5 14,7 11,4 3 1 4 2 W 1006,5 20 0 0,0
19.05.2019 01:00:00 13,7 10,3 12,7 14,7 11,4 3 1 9 5 ZO 1006,7 20 0 0,0
19.05.2019 00:00:00 14,2 10,0 12,6 14,7 11,4 3 1 9 5 Z 1006,8 20 0 0,0
18.05.2019 23:00:00 14,8 10,2 12,7 14,7 11,3 4 2 16 9 ONO 1006,8 20 0 0,0
18.05.2019 22:00:00 14,4 11,2 12,8 14,7 11,3 2 1 9 5 ONO 1006,5 20 0 0,0
18.05.2019 21:00:00 16,5 11,4 14,8 14,6 11,3 2 1 8 4 W 1006,0 20 0 0,0
18.05.2019 20:00:00 17,7 9,3 17,4 14,5 11,3 5 3 10 5 WNW 1005,7 20 0 0,0
18.05.2019 19:00:00 18,4 9,5 19,6 14,4 11,3 6 3 15 8 W 1005,4 20 0 0,0
18.05.2019 18:00:00 18,9 8,5 20,9 14,2 11,3 8 4 21 12 WZW 1005,3 20 19 0,0
18.05.2019 17:00:00 19,8 9,1 23,0 14,0 11,3 10 6 19 10 ZW 1005,3 20 34 0,0
18.05.2019 16:00:00 19,4 9,0 24,0 13,8 11,3 7 4 18 10 NW 1005,3 20 30 0,0
18.05.2019 15:00:00 19,7 8,7 24,5 13,7 11,3 7 4 28 15 Z 1005,4 20 53 0,0
18.05.2019 14:00:00 19,0 9,2 21,7 13,6 11,3 8 4 22 12 ZZO 1005,5 20 34 0,0
18.05.2019 13:00:00 17,3 9,5 20,6 13,5 11,3 8 4 16 9 W 1005,7 20 7 0,0
18.05.2019 12:00:00 16,9 9,8 20,8 13,5 11,3 9 5 17 9 ZW 1005,9 20 27 0,0
18.05.2019 11:00:00 16,3 11,0 19,2 13,5 11,3 7 4 15 8 O 1005,9 20 28 0,0
18.05.2019 10:00:00 15,1 10,5 16,9 13,4 11,2 6 3 13 7 OZO 1005,8 20 44 0,0
18.05.2019 09:00:00 12,7 10,6 13,4 13,5 11,2 5 3 12 7 O 1005,9 19 21 0,0
18.05.2019 08:00:00 10,8 10,3 9,6 13,6 11,3 3 2 5 3 ZO 1005,8 9 1 0,0
18.05.2019 07:00:00 9,1 8,6 8,2 13,7 11,3 3 2 5 3 WNW 1005,8 6 0 0,0
18.05.2019 06:00:00 8,1 7,7 7,4 13,7 11,3 0 0 3 1 N 1005,6 4,0 0 0,0
18.05.2019 05:00:00 7,7 7,1 6,0 13,8 11,3 0 0 4 2 N 1005,4 2,5 0 0,0
18.05.2019 04:00:00 7,6 7,0 5,1 13,8 11,3 0 0 8 5 N 1005,6 5 0 0,0
18.05.2019 03:00:00 8,2 7,4 6,6 13,9 11,3 4 2 5 3 ZZO 1005,7 1,0 0 0,0
18.05.2019 02:00:00 9,0 8,1 6,3 14,0 11,3 2 1 4 2 W 1005,7 4,9 0 0,0
18.05.2019 01:00:00 9,4 8,2 7,2 14,0 11,3 3 1 6 3 NNW 1005,7 8 0 0,0
18.05.2019 00:00:00 11,3 8,9 8,5 14,0 11,3 2 1 9 5 ZZW 1005,6 14 0 0,0
17.05.2019 23:00:00 12,4 9,4 10,9 14,0 11,3 4 2 8 5 N 1005,5 17 0 0,0
17.05.2019 22:00:00 13,7 9,3 12,6 14,0 11,3 4 2 10 5 W 1005,4 19 0 0,0
17.05.2019 21:00:00 14,4 9,6 13,9 13,9 11,2 7 4 14 8 NW 1005,1 20 0 0,0
17.05.2019 20:00:00 15,3 9,6 15,4 13,8 11,2 9 5 13 7 NNW 1004,7 20 0 0,0
17.05.2019 19:00:00 15,8 10,3 16,5 13,7 11,2 8 5 17 9 N 1004,6 20 0 0,0
17.05.2019 18:00:00 16,6 9,3 17,5 13,6 11,2 9 5 18 10 N 1004,7 20 0 0,0
17.05.2019 17:00:00 17,7 7,1 20,7 13,4 11,2 8 5 12 7 W 1004,8 20 0 0,0
17.05.2019 16:00:00 18,2 7,6 19,1 13,3 11,2 4 2 9 5 WZW 1004,9 20 0 0,0
17.05.2019 15:00:00 17,1 6,9 18,7 13,0 11,2 6 3 19 11 Z 1005,1 20 5 0,0
17.05.2019 14:00:00 20,2 9,7 22,2 12,9 11,2 6 3 14 8 Z 1004,8 20 21 0,0
17.05.2019 13:00:00 17,2 8,6 22,4 12,8 11,2 6 3 14 8 ZZO 1005,0 20 53 0,0
17.05.2019 12:00:00 17,0 9,2 22,6 12,7 11,2 5 3 13 7 OZO 1005,4 19 60 0,0
17.05.2019 11:00:00 14,7 9,1 17,8 12,7 11,1 6 3 14 8 O 1006,0 20 13 0,0
17.05.2019 10:00:00 12,9 8,0 15,0 12,8 11,2 6 4 16 8 O 1006,5 20 2 0,0
17.05.2019 09:00:00 11,7 8,2 12,1 12,8 11,2 10 5 15 8 ONO 1007,1 17 2 0,0
17.05.2019 08:00:00 9,1 8,2 7,8 12,9 11,2 0 0 3 2 N 1007,5 8 0 0,0
17.05.2019 07:00:00 7,2 6,5 6,1 12,9 11,2 2 1 4 2 ZW 1007,7 8 0 0,0
17.05.2019 06:00:00 5,8 5,1 2,6 13,1 11,2 2 1 6 3 NNW 1008,0 7 0 0,0
17.05.2019 05:00:00 5,2 4,3 1,7 13,1 11,2 0 0 4 2 N 1008,2 10 0 0,0
17.05.2019 04:00:00 6,1 4,4 2,2 13,2 11,2 2 1 5 3 N 1008,4 11 0 0,0
17.05.2019 03:00:00 8,4 6,4 7,3 13,3 11,2 3 2 5 3 NNW 1009,1 19 0 0,0
17.05.2019 02:00:00 7,8 5,4 5,8 13,3 11,2 0 0 6 3 N 1010,0 16 0 0,0
17.05.2019 01:00:00 10,0 5,6 5,6 13,4 11,2 8 4 21 12 O 1010,6 20 0 0,0
17.05.2019 00:00:00 9,7 5,7 5,2 13,4 11,2 4 2 10 5 N 1011,0 20 0 0,0
16.05.2019 23:00:00 9,1 4,7 5,7 13,4 11,2 5 3 10 5 W 1011,5 20 0 0,0
16.05.2019 22:00:00 11,7 5,1 7,5 13,3 11,2 3 2 11 6 ZW 1011,5 20 0 0,0
16.05.2019 21:00:00 13,4 5,5 11,5 13,3 11,2 10 5 22 12 NO 1011,5 20 51 0,0
16.05.2019 20:00:00 15,8 6,0 15,0 13,2 11,2 11 6 25 14 N 1011,5 20 48 0,0
16.05.2019 19:00:00 16,3 5,6 16,9 13,0 11,1 14 8 26 14 NNO 1011,9 20 31 0,0
16.05.2019 18:00:00 17,1 6,0 17,1 12,9 11,1 14 8 24 13 N 1012,3 20 43 0,0
16.05.2019 17:00:00 17,1 6,3 17,8 12,7 11,1 11 6 21 12 NO 1013,2 20 5 0,0
16.05.2019 16:00:00 16,3 4,3 18,0 12,5 11,1 10 5 31 17 NO 1014,0 20 25 0,0
16.05.2019 15:00:00 16,7 5,0 17,4 12,4 11,1 12 7 34 18 NO 1014,6 20 47 0,0
16.05.2019 14:00:00 16,7 5,6 19,2 12,2 11,1 17 9 31 17 NNO 1015,3 19 49 0,0
16.05.2019 13:00:00 15,6 3,7 20,5 12,1 11,1 17 9 33 18 ONO 1016,0 20 60 0,0
16.05.2019 12:00:00 15,0 3,8 18,4 12,2 11,1 21 11 35 19 NO 1016,8 20 57 0,0
16.05.2019 11:00:00 14,5 3,9 15,3 12,1 11,1 9 5 31 17 OZO 1017,5 20 58 0,0
16.05.2019 10:00:00 13,2 2,7 15,6 12,2 11,1 9 5 21 11 ONO 1018,4 20 60 0,0
16.05.2019 09:00:00 11,2 3,2 12,3 12,3 11,1 0 0 16 9 N 1019,2 20 60 0,0
16.05.2019 08:00:00 6,2 3,2 1,7 12,4 11,2 2 1 5 3 WNW 1019,9 20 60 0,0
16.05.2019 07:00:00 2,4 1,4 -2,2 12,6 11,2 0 0 7 4 N 1020,1 20 38 0,0
16.05.2019 06:00:00 0,6 -0,4 -2,7 12,7 11,2 4 2 6 3 WNW 1020,4 20 0 0,0
16.05.2019 05:00:00 1,7 0,7 -2,2 12,8 11,1 4 2 6 3 WNW 1020,5 20 0 0,0
16.05.2019 04:00:00 1,8 0,5 -2,0 12,9 11,1 2 1 6 3 W 1020,8 20 0 0,0
16.05.2019 03:00:00 2,0 0,2 -1,5 12,9 11,1 0 0 8 5 N 1021,2 20 0 0,0
16.05.2019 02:00:00 3,3 1,0 -0,6 13,0 11,1 2 1 6 4 W 1021,3 20 0 0,0
16.05.2019 01:00:00 4,4 0,9 1,5 13,1 11,1 4 2 10 5 Z 1021,6 20 0 0,0
16.05.2019 00:00:00 8,8 0,5 4,0 13,1 11,1 5 3 15 8 NW 1021,6 20 0 0,0
15.05.2019 23:00:00 9,9 -0,1 7,0 13,2 11,1 10 5 24 13 NO 1021,8 20 0 0,0
15.05.2019 22:00:00 10,8 -0,1 7,4 13,2 11,2 10 6 23 13 NNO 1021,7 20 0 0,0
15.05.2019 21:00:00 13,3 -1,1 11,3 13,0 11,1 15 8 31 17 NNO 1021,5 20 52 0,0
15.05.2019 20:00:00 15,2 -0,2 14,2 12,9 11,1 16 8 29 16 NO 1021,2 20 60 0,0
15.05.2019 19:00:00 16,5 0,2 16,6 12,8 11,1 17 9 31 17 NNO 1021,2 20 60 0,0
15.05.2019 18:00:00 17,0 1,0 17,9 12,6 11,1 17 9 33 18 NO 1021,4 20 60 0,0
15.05.2019 17:00:00 17,4 1,8 20,2 12,5 11,1 18 10 35 19 NO 1021,5 20 60 0,0
15.05.2019 16:00:00 17,5 2,6 22,0 12,3 11,1 14 8 37 20 NO 1022,0 20 60 0,0
15.05.2019 15:00:00 17,2 2,0 22,1 12,1 11,1 17 9 41 22 NO 1022,5 20 60 0,0
15.05.2019 14:00:00 16,4 2,0 22,3 12,0 11,1 21 11 39 21 ONO 1023,1 20 60 0,0
15.05.2019 13:00:00 16,2 1,5 20,5 11,9 11,1 15 8 43 23 NNO 1023,6 20 60 0,0
15.05.2019 12:00:00 15,1 1,2 20,4 11,9 11,1 20 11 37 20 ONO 1024,5 20 60 0,0
15.05.2019 11:00:00 14,4 1,0 15,4 12,0 11,1 19 11 36 19 ONO 1025,3 20 60 0,0
15.05.2019 10:00:00 13,0 1,6 15,6 12,0 11,1 14 7 22 12 O 1026,2 20 60 0,0
15.05.2019 09:00:00 11,6 3,9 11,9 12,1 11,1 2 1 14 8 ZZW 1026,6 20 60 0,0
15.05.2019 08:00:00 8,0 3,6 3,6 12,2 11,1 0 0 5 3 N 1027,1 20 60 0,0
15.05.2019 07:00:00 2,9 1,6 -2,4 12,3 11,1 3 2 7 4 W 1027,6 20 36 0,0
15.05.2019 06:00:00 0,9 -0,3 -2,6 12,4 11,1 3 2 6 4 WNW 1027,4 20 0 0,0
15.05.2019 05:00:00 1,8 0,0 -1,6 12,5 11,1 3 2 8 4 W 1027,4 12 0 0,0
15.05.2019 04:00:00 3,5 1,4 -0,4 12,6 11,1 4 2 7 4 W 1027,3 20 0 0,0
15.05.2019 03:00:00 5,4 1,7 1,2 12,7 11,1 5 3 9 5 ZW 1027,3 20 0 0,0
15.05.2019 02:00:00 7,6 1,2 4,4 12,7 11,1 5 3 26 14 ZZO 1027,7 20 0 0,0
15.05.2019 01:00:00 9,2 1,6 6,8 12,8 11,1 16 9 26 14 NO 1027,4 20 0 0,0
15.05.2019 00:00:00 10,0 1,9 8,3 12,8 11,1 17 9 26 14 NO 1027,7 20 0 0,0
14.05.2019 23:00:00 10,3 2,1 8,7 12,8 11,1 16 8 26 14 NO 1027,8 20 0 0,0
14.05.2019 22:00:00 11,5 2,2 9,9 12,8 11,1 15 8 34 18 NNO 1027,7 20 0 0,0
14.05.2019 21:00:00 12,9 2,4 11,5 12,7 11,1 19 10 38 20 NNO 1027,4 20 51 0,0
14.05.2019 20:00:00 14,9 3,1 14,1 12,6 11,1 22 12 39 21 NNO 1027,1 20 60 0,0
14.05.2019 19:00:00 16,2 2,6 16,5 12,5 11,0 20 11 37 20 NO 1027,0 20 60 0,0
14.05.2019 18:00:00 17,1 3,0 17,9 12,3 11,0 20 11 36 20 NO 1027,1 20 60 0,0
14.05.2019 17:00:00 17,2 3,5 19,4 12,1 11,0 18 10 38 21 NNO 1027,5 20 60 0,0
14.05.2019 16:00:00 16,7 1,5 21,1 11,9 11,0 20 11 37 20 NNO 1028,2 20 60 0,0
14.05.2019 15:00:00 16,4 0,5 21,6 11,8 11,1 19 10 38 21 NO 1029,1 20 60 0,0
14.05.2019 14:00:00 16,1 2,1 21,2 11,7 11,0 23 12 36 19 NO 1029,8 20 60 0,0
14.05.2019 13:00:00 15,5 1,2 20,8 11,6 11,0 18 10 42 23 NO 1030,2 20 60 0,0
14.05.2019 12:00:00 14,9 -0,1 19,3 11,6 11,0 15 8 31 17 NO 1031,0 20 60 0,0
14.05.2019 11:00:00 13,7 1,3 14,7 11,7 11,0 19 10 38 20 NO 1031,8 20 60 0,0
14.05.2019 10:00:00 12,4 2,3 13,4 11,7 11,0 18 10 28 15 O 1032,2 20 60 0,0
14.05.2019 09:00:00 11,1 1,9 12,1 11,8 11,1 13 7 22 12 ONO 1032,8 20 60 0,0
14.05.2019 08:00:00 9,1 1,5 5,7 11,9 11,0 3 2 11 6 Z 1033,5 20 60 0,0
14.05.2019 07:00:00 6,5 0,8 -0,6 12,0 11,1 5 3 19 11 Z 1033,7 20 35 0,0
14.05.2019 06:00:00 2,6 -0,7 -0,8 12,1 11,1 3 1 8 5 WNW 1034,0 20 0 0,0
14.05.2019 05:00:00 4,3 -0,1 -0,2 12,2 11,1 3 1 8 4 W 1033,8 20 0 0,0

tt = temperatuur
td = dauwpunt
tt 5cm = temperatuur 5cm
tt -20cm = temperatuur -20cm
tt -100cm = temperatuur -100cm
ff = windsnelheid
fx = windstoten
dd = windrichting
ppp = luchtdruk
vv = zicht
sd = Zonneschijnduur
rr = neerslag

Weerstations in de omgeving